Find Starlink 36741

NORAD ID: 67727 Int'l Des: 2026-026 Owner: SPXS Country: US Constellation: starlink operational
LEOCIRCULARRETROGRADE

現在のビュー

3D地球を読み込み中...

Starlink 36741について

説明を読み込み中...

次回通過

Passes for default location (London). Set your location on the main map for personalized predictions.

高度履歴

Loading altitude history...

軌道要素

1 67727U 26026G 26146.14079845 -.00024951 00000-0 -77279-3 0 9990
2 67727 97.2843 199.6204 0001535 98.9122 261.2294 15.33456099 15995
Epoch: May 26, 2026 • Age: 14 hours

現在のステータス

高度 468.1 km
速度 7.63 km/s
衛星直下点 6.43°N, 52.55°E
打ち上げ日 Feb 11, 2026
運用期間 0.2 years
タイプ internet

技術仕様

分類 Payload
質量 575.00 kg
乾燥質量 530.00 kg
総質量 575.00 kg
長さ 0.30 m
直径 4.10 m
スパン 29.00 m
形状 Box + pan
製造者 SPXS
バスタイプ Starlink V2MO
フェーズステータス In Orbit
所有者/国 SPXS/US

Most Searched